Weather History for KMBG - October, 2014

Change the Weather History Date:

Saturday, October 11, 2014

  Actual Average Record
Temperature  
Mean Temperature 61 °F 49 °F  
Max Temperature 77 °F 62 °F 90 °F (1943)
Min Temperature 45 °F 36 °F 19 °F (1946)
Degree Days  
Heating Degree Days 4 16  
Month to date heating degree days 163 152  
Since 1 July heating degree days 365 372  
Cooling Degree Days 0 0  
Month to date cooling degree days 0 0  
Year to date cooling degree days 466 641  
Growing Degree Days 10 (Base 50)    
Moisture  
Dew Point 38 °F    
Average Humidity 45    
Maximum Humidity 60    
Minimum Humidity 29    
Precipitation  
Precipitation T in 0.04 in 1.43 in (1973)
Month to date precipitation T 0.57  
Year to date precipitation 20.03 16.02  
Snow  
Snow 0.00 in - - ()
Month to date snowfall 0.0  
Since 1 July snowfall 0.0  
Snow Depth 0.00 in    
Sea Level Pressure  
Sea Level Pressure 29.86 in    
Wind  
Wind Speed 18 mph (SSE)    
Max Wind Speed 26 mph    
Max Gust Speed 33 mph    
Visibility 10 miles    
Events      
T = Trace of Precipitation, MM = Missing Value Source: NWS Daily Summary

Daily Weather History Graph

Daily Weather History Graph

Search for Another Location

Airport or City:

Trip Planner

Search our weather history database for the weather conditions in past years. The results will help you decide how hot, cold, wet, or windy it might be!

Date:

Astronomy

Oct. 11, 2014 Rise Set
Actual Time 7:52 AM CDT 7:03 PM CDT
Civil Twilight 7:23 AM CDT 7:32 PM CDT
Nautical Twilight 6:48 AM CDT 8:07 PM CDT
Astronomical Twilight 6:14 AM CDT 8:41 PM CDT
Moon 9:23 PM CDT (10/11) 11:27 AM CDT (10/11)
Length of Visible Light 12h 09m
Length of Day
11h 10m
Waning Gibbous, 87% of the Moon is Illuminated
Oct 11
Waning Gibbous
Oct 15
Last Quarter
Oct 23
New
Oct 30
First Quarter
Nov 6
Full

Hourly Weather History & Observations

Time (CDT) Temp. Windchill Dew Point Humidity Pressure Visibility Wind Dir Wind Speed Gust Speed Precip Events Conditions
12:52 AM 46.0 °F 40.6 °F 30.0 °F 54% 30.13 in 10.0 mi SE 11.5 mph - N/A   Overcast
1:52 AM 46.0 °F 39.6 °F 30.9 °F 56% 30.11 in 10.0 mi SE 15.0 mph - N/A   Scattered Clouds
2:52 AM 46.9 °F - 32.0 °F 56% 30.09 in 10.0 mi SSE 15.0 mph - N/A   Clear
3:52 AM 46.9 °F - 32.0 °F 56% 30.05 in 10.0 mi SSE 16.1 mph - N/A   Clear
4:52 AM 46.0 °F 39.6 °F 30.0 °F 54% 30.03 in 10.0 mi SE 15.0 mph - N/A   Clear
5:52 AM 46.0 °F 39.3 °F 30.9 °F 56% 30.01 in 10.0 mi SE 16.1 mph - N/A   Clear
6:52 AM 48.0 °F - 33.1 °F 56% 29.99 in 10.0 mi SSE 23.0 mph 27.6 mph N/A   Clear
7:52 AM 46.9 °F - 33.1 °F 59% 29.99 in 10.0 mi SSE 21.9 mph - N/A   Clear
8:52 AM 48.0 °F - 34.0 °F 58% 29.98 in 10.0 mi SSE 17.3 mph - N/A   Clear
9:52 AM 52.0 °F - 37.0 °F 57% 29.96 in 10.0 mi South 19.6 mph - N/A   Clear
10:52 AM 55.0 °F - 39.0 °F 55% 29.94 in 10.0 mi SSE 19.6 mph - N/A   Clear
11:52 AM 60.1 °F - 41.0 °F 49% 29.91 in 10.0 mi SSE 17.3 mph - N/A   Clear
12:52 PM 66.0 °F - 43.0 °F 43% 29.87 in 10.0 mi South 18.4 mph 25.3 mph N/A   Clear
1:52 PM 71.1 °F - 43.0 °F 36% 29.83 in 10.0 mi South 19.6 mph 27.6 mph N/A   Clear
2:52 PM 75.0 °F - 43.0 °F 32% 29.78 in 10.0 mi South 24.2 mph 29.9 mph N/A   Clear
3:52 PM 75.9 °F - 41.0 °F 29% 29.74 in 10.0 mi South 24.2 mph - N/A   Clear
4:52 PM 75.9 °F - 42.1 °F 30% 29.71 in 10.0 mi South 23.0 mph 29.9 mph N/A   Clear
5:52 PM 73.0 °F - 41.0 °F 31% 29.70 in 10.0 mi South 20.7 mph 28.8 mph N/A   Clear
6:52 PM 66.9 °F - 42.1 °F 40% 29.69 in 10.0 mi SSE 13.8 mph - N/A   Clear
7:52 PM 64.9 °F - 44.1 °F 47% 29.68 in 10.0 mi SSE 15.0 mph - N/A   Clear
8:52 PM 64.9 °F - 43.0 °F 45% 29.66 in 10.0 mi SSE 20.7 mph - N/A   Clear
9:52 PM 62.1 °F - 42.1 °F 48% 29.65 in 10.0 mi SSE 19.6 mph - N/A   Clear
10:52 PM 61.0 °F - 43.0 °F 52% 29.64 in 10.0 mi SSE 17.3 mph - N/A   Mostly Cloudy
11:52 PM 61.0 °F - 42.1 °F 50% 29.60 in 10.0 mi South 17.3 mph 26.5 mph N/A   Overcast